"Sample Date","Sample Time","Sensor Name","Sample Value","Units","Flow Rate","Sample Interval","Sample Volume","Laser Status","Number Channels","Micron Size 0","Counts/Channel 0","Micron Size 1","Counts/Channel 1","Micron Size 2","Counts/Channel 2","Micron Size 3","Counts/Channel 3","Micron Size 4","Counts/Channel 4","Micron Size 5","Counts/Channel 5","Micron Size 6","Counts/Channel 6","Micron Size 7","Counts/Channel 7","Micron Size 8","Counts/Channel 8","Micron Size 9","Counts/Channel 9","Micron Size 10","Counts/Channel 10","Micron Size 11","Counts/Channel 11","Micron Size 12","Counts/Channel 12","Micron Size 13","Counts/Channel 13","Micron Size 14","Counts/Channel 14","Micron Size 15","Counts/Channel 15","Micron Size 16","Counts/Channel 16","Micron Size 17","Counts/Channel 17","Micron Size 18","Counts/Channel 18","Micron Size 19","Counts/Channel 19","Micron Size 20","Counts/Channel 20","Micron Size 21","Counts/Channel 21","Micron Size 22","Counts/Channel 22","Micron Size 23","Counts/Channel 23","Micron Size 24","Counts/Channel 24","Micron Size 25","Counts/Channel 25","Micron Size 26","Counts/Channel 26","Micron Size 27","Counts/Channel 27","Micron Size 28","Counts/Channel 28","Micron Size 29","Counts/Channel 29","Micron Size 30","Counts/Channel 30","Micron Size 31","Counts/Channel 31"
"07/10/06","21:00:02","AMMA06",39055.000,"cc",28300.352,6.00,2830.035,1,6,0.100,23311.000,0.200,12811.000,0.300,2785.000,0.500,109.000,1.000,39.000,5.000,0
"07/10/06","21:00:08","AMMA06",39473.000,"cc",28306.121,6.00,2830.612,1,6,0.100,23642.000,0.200,12859.000,0.300,2823.000,0.500,109.000,1.000,40.000,5.000,0
"07/10/06","21:00:14","AMMA06",39170.000,"cc",28338.563,6.00,2833.856,1,6,0.100,23058.000,0.200,13162.000,0.300,2810.000,0.500,119.000,1.000,21.000,5.000,0
"07/10/06","21:00:20","AMMA06",39277.000,"cc",28366.258,6.00,2836.626,1,6,0.100,23486.000,0.200,12890.000,0.300,2771.000,0.500,94.000,1.000,36.000,5.000,0
"07/10/06","21:00:26","AMMA06",38549.000,"cc",28252.607,6.00,2825.261,1,6,0.100,23095.000,0.200,12580.000,0.300,2714.000,0.500,135.000,1.000,25.000,5.000,0
"07/10/06","21:00:32","AMMA06",38650.000,"cc",28339.156,6.00,2833.916,1,6,0.100,22949.000,0.200,12882.000,0.300,2686.000,0.500,100.000,1.000,33.000,5.000,0
"07/10/06","21:00:38","AMMA06",38823.000,"cc",28322.459,6.00,2832.246,1,6,0.100,23028.000,0.200,12891.000,0.300,2764.000,0.500,108.000,1.000,32.000,5.000,0
"07/10/06","21:00:44","AMMA06",36758.000,"cc",28303.402,6.00,2830.340,1,6,0.100,21454.000,0.200,12518.000,0.300,2657.000,0.500,94.000,1.000,35.000,5.000,0
"07/10/06","21:00:50","AMMA06",34467.000,"cc",28312.246,6.00,2831.225,1,6,0.100,19407.000,0.200,12218.000,0.300,2699.000,0.500,106.000,1.000,37.000,5.000,0
"07/10/06","21:00:56","AMMA06",34168.000,"cc",28288.641,6.00,2828.864,1,6,0.100,19051.000,0.200,12380.000,0.300,2609.000,0.500,99.000,1.000,29.000,5.000,0
"07/10/06","21:01:02","AMMA06",34107.000,"cc",28320.719,6.00,2832.072,1,6,0.100,19015.000,0.200,12408.000,0.300,2557.000,0.500,104.000,1.000,23.000,5.000,0
"07/10/06","21:01:08","AMMA06",33885.000,"cc",28294.668,6.00,2829.467,1,6,0.100,18900.000,0.200,12284.000,0.300,2574.000,0.500,96.000,1.000,31.000,5.000,0
"07/10/06","21:01:14","AMMA06",33998.000,"cc",28307.563,6.00,2830.756,1,6,0.100,18926.000,0.200,12321.000,0.300,2622.000,0.500,102.000,1.000,27.000,5.000,0
"07/10/06","21:01:20","AMMA06",34388.000,"cc",28321.680,6.00,2832.168,1,6,0.100,19372.000,0.200,12240.000,0.300,2654.000,0.500,92.000,1.000,30.000,5.000,0
"07/10/06","21:01:26","AMMA06",34060.000,"cc",28337.891,6.00,2833.789,1,6,0.100,19160.000,0.200,12206.000,0.300,2534.000,0.500,126.000,1.000,34.000,5.000,0
"07/10/06","21:01:32","AMMA06",33695.000,"cc",28353.164,6.00,2835.317,1,6,0.100,19001.000,0.200,12020.000,0.300,2530.000,0.500,107.000,1.000,37.000,5.000,0
"07/10/06","21:01:38","AMMA06",33983.000,"cc",28255.494,6.00,2825.550,1,6,0.100,19067.000,0.200,12301.000,0.300,2488.000,0.500,93.000,1.000,34.000,5.000,0
"07/10/06","21:01:44","AMMA06",34178.000,"cc",28301.391,6.00,2830.139,1,6,0.100,19213.000,0.200,12309.000,0.300,2524.000,0.500,102.000,1.000,30.000,5.000,0
"07/10/06","21:01:50","AMMA06",34391.000,"cc",28332.135,6.00,2833.214,1,6,0.100,19390.000,0.200,12319.000,0.300,2528.000,0.500,112.000,1.000,42.000,5.000,0
"07/10/06","21:01:56","AMMA06",35064.000,"cc",28259.969,6.00,2825.997,1,6,0.100,20200.000,0.200,12245.000,0.300,2487.000,0.500,100.000,1.000,32.000,5.000,0
"07/10/06","21:02:02","AMMA06",35113.000,"cc",28332.965,6.00,2833.297,1,6,0.100,20091.000,0.200,12363.000,0.300,2536.000,0.500,99.000,1.000,24.000,5.000,0
"07/10/06","21:02:08","AMMA06",35221.000,"cc",28334.225,6.00,2833.423,1,6,0.100,20149.000,0.200,12425.000,0.300,2506.000,0.500,104.000,1.000,37.000,5.000,0
"07/10/06","21:02:14","AMMA06",34673.000,"cc",28362.168,6.00,2836.217,1,6,0.100,19828.000,0.200,12251.000,0.300,2465.000,0.500,96.000,1.000,33.000,5.000,0
"07/10/06","21:02:20","AMMA06",34720.000,"cc",28281.893,6.00,2828.190,1,6,0.100,19789.000,0.200,12305.000,0.300,2474.000,0.500,114.000,1.000,38.000,5.000,0
"07/10/06","21:02:26","AMMA06",34182.000,"cc",28358.492,6.00,2835.849,1,6,0.100,19438.000,0.200,12095.000,0.300,2537.000,0.500,90.000,1.000,22.000,5.000,0
"07/10/06","21:02:32","AMMA06",34289.000,"cc",28344.742,6.00,2834.474,1,6,0.100,19161.000,0.200,12458.000,0.300,2541.000,0.500,99.000,1.000,30.000,5.000,0
"07/10/06","21:02:38","AMMA06",33989.000,"cc",28286.563,6.00,2828.657,1,6,0.100,19244.000,0.200,12123.000,0.300,2464.000,0.500,118.000,1.000,40.000,5.000,0
"07/10/06","21:02:44","AMMA06",33966.000,"cc",28298.455,6.00,2829.846,1,6,0.100,19257.000,0.200,12092.000,0.300,2467.000,0.500,110.000,1.000,40.000,5.000,0
"07/10/06","21:02:50","AMMA06",33900.000,"cc",28298.984,6.00,2829.899,1,6,0.100,19071.000,0.200,12154.000,0.300,2539.000,0.500,110.000,1.000,26.000,5.000,0
"07/10/06","21:02:56","AMMA06",34568.000,"cc",28316.238,6.00,2831.624,1,6,0.100,19365.000,0.200,12455.000,0.300,2612.000,0.500,98.000,1.000,38.000,5.000,0
"07/10/06","21:03:02","AMMA06",33680.000,"cc",28328.457,6.00,2832.846,1,6,0.100,18838.000,0.200,12152.000,0.300,2558.000,0.500,99.000,1.000,33.000,5.000,0
"07/10/06","21:03:08","AMMA06",33875.000,"cc",28317.965,6.00,2831.797,1,6,0.100,19051.000,0.200,12158.000,0.300,2511.000,0.500,121.000,1.000,34.000,5.000,0
"07/10/06","21:03:14","AMMA06",34523.000,"cc",28353.910,6.00,2835.391,1,6,0.100,19471.000,0.200,12396.000,0.300,2525.000,0.500,103.000,1.000,28.000,5.000,0
"07/10/06","21:03:20","AMMA06",33856.000,"cc",28290.623,6.00,2829.063,1,6,0.100,19070.000,0.200,12187.000,0.300,2473.000,0.500,98.000,1.000,28.000,5.000,0
"07/10/06","21:03:26","AMMA06",34462.000,"cc",28252.670,6.00,2825.267,1,6,0.100,19233.000,0.200,12339.000,0.300,2724.000,0.500,130.000,1.000,36.000,5.000,0
"07/10/06","21:03:32","AMMA06",34335.000,"cc",28293.871,6.00,2829.387,1,6,0.100,19379.000,0.200,12217.000,0.300,2594.000,0.500,99.000,1.000,46.000,5.000,0
"07/10/06","21:03:38","AMMA06",35239.000,"cc",28341.264,6.00,2834.127,1,6,0.100,19690.000,0.200,12613.000,0.300,2772.000,0.500,121.000,1.000,43.000,5.000,0
"07/10/06","21:03:44","AMMA06",34478.000,"cc",28322.332,6.00,2832.233,1,6,0.100,19273.000,0.200,12371.000,0.300,2696.000,0.500,100.000,1.000,38.000,5.000,0
"07/10/06","21:03:50","AMMA06",34932.000,"cc",28369.248,6.00,2836.925,1,6,0.100,19509.000,0.200,12504.000,0.300,2782.000,0.500,106.000,1.000,31.000,5.000,0
"07/10/06","21:03:56","AMMA06",34271.000,"cc",28365.731,6.00,2836.573,1,6,0.100,19059.000,0.200,12457.000,0.300,2621.000,0.500,107.000,1.000,27.000,5.000,0
"07/10/06","21:04:02","AMMA06",34842.000,"cc",28277.213,6.00,2827.721,1,6,0.100,19551.000,0.200,12451.000,0.300,2696.000,0.500,108.000,1.000,36.000,5.000,0
"07/10/06","21:04:08","AMMA06",35411.000,"cc",28299.234,6.00,2829.924,1,6,0.100,19975.000,0.200,12636.000,0.300,2652.000,0.500,116.000,1.000,32.000,5.000,0
"07/10/06","21:04:14","AMMA06",36405.000,"cc",28309.613,6.00,2830.961,1,6,0.100,20858.000,0.200,12650.000,0.300,2751.000,0.500,113.000,1.000,33.000,5.000,0
"07/10/06","21:04:20","AMMA06",37911.000,"cc",28308.637,6.00,2830.864,1,6,0.100,22182.000,0.200,12827.000,0.300,2761.000,0.500,120.000,1.000,21.000,5.000,0
"07/10/06","21:04:26","AMMA06",38363.000,"cc",28288.057,6.00,2828.806,1,6,0.100,22391.000,0.200,12957.000,0.300,2856.000,0.500,125.000,1.000,34.000,5.000,0
"07/10/06","21:04:32","AMMA06",38541.000,"cc",28358.131,6.00,2835.813,1,6,0.100,22853.000,0.200,12758.000,0.300,2800.000,0.500,99.000,1.000,31.000,5.000,0
"07/10/06","21:04:38","AMMA06",38829.000,"cc",28363.572,6.00,2836.357,1,6,0.100,23103.000,0.200,12820.000,0.300,2764.000,0.500,122.000,1.000,20.000,5.000,0
"07/10/06","21:04:44","AMMA06",39020.000,"cc",28288.389,6.00,2828.839,1,6,0.100,23224.000,0.200,12845.000,0.300,2826.000,0.500,94.000,1.000,31.000,5.000,0
"07/10/06","21:04:50","AMMA06",39378.000,"cc",28271.670,6.00,2827.167,1,6,0.100,23418.000,0.200,12982.000,0.300,2834.000,0.500,107.000,1.000,37.000,5.000,0
"07/10/06","21:04:56","AMMA06",39376.000,"cc",28312.963,6.00,2831.296,1,6,0.100,23446.000,0.200,12999.000,0.300,2789.000,0.500,109.000,1.000,33.000,5.000,0
"07/10/06","21:05:02","AMMA06",39680.000,"cc",28360.654,6.00,2836.066,1,6,0.100,23744.000,0.200,12987.000,0.300,2797.000,0.500,115.000,1.000,37.000,5.000,0
"07/10/06","21:05:08","AMMA06",39404.000,"cc",28301.982,6.00,2830.199,1,6,0.100,23499.000,0.200,13002.000,0.300,2751.000,0.500,114.000,1.000,38.000,5.000,0
"07/10/06","21:05:14","AMMA06",39453.000,"cc",28349.295,6.00,2834.930,1,6,0.100,23556.000,0.200,12920.000,0.300,2830.000,0.500,110.000,1.000,37.000,5.000,0
"07/10/06","21:05:20","AMMA06",39828.000,"cc",28352.690,6.00,2835.269,1,6,0.100,23792.000,0.200,12984.000,0.300,2892.000,0.500,115.000,1.000,45.000,5.000,0
"07/10/06","21:05:26","AMMA06",39623.000,"cc",28300.580,6.00,2830.058,1,6,0.100,23554.000,0.200,13053.000,0.300,2851.000,0.500,128.000,1.000,37.000,5.000,0
"07/10/06","21:05:32","AMMA06",39082.000,"cc",28240.926,6.00,2824.093,1,6,0.100,23623.000,0.200,12653.000,0.300,2665.000,0.500,107.000,1.000,34.000,5.000,0
"07/10/06","21:05:38","AMMA06",39956.000,"cc",28308.080,6.00,2830.808,1,6,0.100,24117.000,0.200,12876.000,0.300,2807.000,0.500,116.000,1.000,40.000,5.000,0
"07/10/06","21:05:44","AMMA06",39863.000,"cc",28324.258,6.00,2832.426,1,6,0.100,24015.000,0.200,12877.000,0.300,2822.000,0.500,118.000,1.000,31.000,5.000,0
"07/10/06","21:05:50","AMMA06",39950.000,"cc",28337.330,6.00,2833.733,1,6,0.100,24244.000,0.200,12856.000,0.300,2693.000,0.500,120.000,1.000,37.000,5.000,0
"07/10/06","21:05:56","AMMA06",39477.000,"cc",28318.877,6.00,2831.888,1,6,0.100,23600.000,0.200,12900.000,0.300,2838.000,0.500,104.000,1.000,35.000,5.000,0
"07/10/06","21:06:02","AMMA06",39382.000,"cc",28350.518,6.00,2835.052,1,6,0.100,23787.000,0.200,12660.000,0.300,2802.000,0.500,103.000,1.000,30.000,5.000,0
"07/10/06","21:06:08","AMMA06",39491.000,"cc",28316.893,6.00,2831.690,1,6,0.100,23728.000,0.200,12872.000,0.300,2735.000,0.500,109.000,1.000,47.000,5.000,0
"07/10/06","21:06:14","AMMA06",39767.000,"cc",28299.627,6.00,2829.963,1,6,0.100,23961.000,0.200,12890.000,0.300,2757.000,0.500,123.000,1.000,36.000,5.000,0
"07/10/06","21:06:20","AMMA06",40149.000,"cc",28315.453,6.00,2831.545,1,6,0.100,24264.000,0.200,13021.000,0.300,2705.000,0.500,115.000,1.000,44.000,5.000,0
"07/10/06","21:06:26","AMMA06",40692.000,"cc",28239.805,6.00,2823.981,1,6,0.100,24682.000,0.200,13045.000,0.300,2824.000,0.500,105.000,1.000,36.000,5.000,0
"07/10/06","21:06:32","AMMA06",40028.000,"cc",28339.658,6.00,2833.966,1,6,0.100,24099.000,0.200,13021.000,0.300,2748.000,0.500,130.000,1.000,30.000,5.000,0
"07/10/06","21:06:38","AMMA06",39646.000,"cc",28360.893,6.00,2836.089,1,6,0.100,23807.000,0.200,12892.000,0.300,2808.000,0.500,111.000,1.000,28.000,5.000,0
"07/10/06","21:06:44","AMMA06",39770.000,"cc",28371.856,6.00,2837.186,1,6,0.100,23919.000,0.200,12965.000,0.300,2749.000,0.500,101.000,1.000,36.000,5.000,0
"07/10/06","21:06:50","AMMA06",39709.000,"cc",28337.176,6.00,2833.718,1,6,0.100,23804.000,0.200,12947.000,0.300,2810.000,0.500,120.000,1.000,28.000,5.000,0
"07/10/06","21:06:56","AMMA06",39739.000,"cc",28269.529,6.00,2826.953,1,6,0.100,23905.000,0.200,12905.000,0.300,2782.000,0.500,105.000,1.000,42.000,5.000,0
"07/10/06","21:07:02","AMMA06",39800.000,"cc",28304.063,6.00,2830.407,1,6,0.100,23951.000,0.200,12927.000,0.300,2776.000,0.500,122.000,1.000,24.000,5.000,0
"07/10/06","21:07:08","AMMA06",40298.000,"cc",28261.436,6.00,2826.144,1,6,0.100,24146.000,0.200,13079.000,0.300,2915.000,0.500,122.000,1.000,36.000,5.000,0
"07/10/06","21:07:14","AMMA06",40260.000,"cc",28381.090,6.00,2838.109,1,6,0.100,24137.000,0.200,13074.000,0.300,2902.000,0.500,113.000,1.000,34.000,5.000,0
"07/10/06","21:07:20","AMMA06",39748.000,"cc",28322.133,6.00,2832.213,1,6,0.100,24019.000,0.200,12908.000,0.300,2655.000,0.500,131.000,1.000,35.000,5.000,0
"07/10/06","21:07:26","AMMA06",40133.000,"cc",28319.785,6.00,2831.979,1,6,0.100,24120.000,0.200,13010.000,0.300,2858.000,0.500,106.000,1.000,39.000,5.000,0
"07/10/06","21:07:32","AMMA06",39964.000,"cc",28279.150,6.00,2827.915,1,6,0.100,23966.000,0.200,12963.000,0.300,2889.000,0.500,112.000,1.000,34.000,5.000,0
"07/10/06","21:07:38","AMMA06",39750.000,"cc",28320.475,6.00,2832.048,1,6,0.100,23877.000,0.200,12901.000,0.300,2835.000,0.500,111.000,1.000,26.000,5.000,0
"07/10/06","21:07:44","AMMA06",39991.000,"cc",28368.477,6.00,2836.848,1,6,0.100,23853.000,0.200,13102.000,0.300,2872.000,0.500,130.000,1.000,34.000,5.000,0
"07/10/06","21:07:50","AMMA06",39617.000,"cc",28352.182,6.00,2835.218,1,6,0.100,23835.000,0.200,12802.000,0.300,2834.000,0.500,112.000,1.000,34.000,5.000,0
"07/10/06","21:07:56","AMMA06",39844.000,"cc",28326.815,6.00,2832.682,1,6,0.100,23950.000,0.200,12893.000,0.300,2859.000,0.500,114.000,1.000,28.000,5.000,0
"07/10/06","21:08:02","AMMA06",39539.000,"cc",28318.182,6.00,2831.818,1,6,0.100,23589.000,0.200,12824.000,0.300,2963.000,0.500,121.000,1.000,42.000,5.000,0
"07/10/06","21:08:08","AMMA06",39789.000,"cc",28275.662,6.00,2827.566,1,6,0.100,23743.000,0.200,12863.000,0.300,3022.000,0.500,126.000,1.000,35.000,5.000,0
"07/10/06","21:08:14","AMMA06",39768.000,"cc",28347.221,6.00,2834.722,1,6,0.100,23652.000,0.200,13087.000,0.300,2881.000,0.500,118.000,1.000,30.000,5.000,0
"07/10/06","21:08:20","AMMA06",39840.000,"cc",28284.979,6.00,2828.498,1,6,0.100,23895.000,0.200,12880.000,0.300,2908.000,0.500,127.000,1.000,30.000,5.000,0
"07/10/06","21:08:26","AMMA06",40391.000,"cc",28357.143,6.00,2835.714,1,6,0.100,24018.000,0.200,13207.000,0.300,3012.000,0.500,105.000,1.000,49.000,5.000,0
"07/10/06","21:08:32","AMMA06",40149.000,"cc",28312.869,6.00,2831.287,1,6,0.100,23706.000,0.200,13223.000,0.300,3080.000,0.500,107.000,1.000,33.000,5.000,0
"07/10/06","21:08:38","AMMA06",39840.000,"cc",28316.787,6.00,2831.679,1,6,0.100,23580.000,0.200,13070.000,0.300,3044.000,0.500,117.000,1.000,29.000,5.000,0
"07/10/06","21:08:44","AMMA06",39898.000,"cc",28312.291,6.00,2831.229,1,6,0.100,23757.000,0.200,12927.000,0.300,3054.000,0.500,119.000,1.000,41.000,5.000,0
"07/10/06","21:08:50","AMMA06",39864.000,"cc",28335.037,6.00,2833.504,1,6,0.100,23686.000,0.200,12954.000,0.300,3068.000,0.500,111.000,1.000,45.000,5.000,0
"07/10/06","21:08:56","AMMA06",40047.000,"cc",28328.494,6.00,2832.850,1,6,0.100,23652.000,0.200,13189.000,0.300,3055.000,0.500,123.000,1.000,28.000,5.000,0
"07/10/06","21:09:02","AMMA06",40192.000,"cc",28269.652,6.00,2826.965,1,6,0.100,23736.000,0.200,13151.000,0.300,3120.000,0.500,139.000,1.000,46.000,5.000,0
"07/10/06","21:09:08","AMMA06",39679.000,"cc",28302.602,6.00,2830.260,1,6,0.100,23424.000,0.200,13075.000,0.300,3054.000,0.500,93.000,1.000,33.000,5.000,0
"07/10/06","21:09:14","AMMA06",39347.000,"cc",28327.783,6.00,2832.779,1,6,0.100,23063.000,0.200,13109.000,0.300,3033.000,0.500,109.000,1.000,33.000,5.000,0
"07/10/06","21:09:20","AMMA06",39745.000,"cc",28315.943,6.00,2831.595,1,6,0.100,23538.000,0.200,13105.000,0.300,2953.000,0.500,106.000,1.000,43.000,5.000,0
"07/10/06","21:09:26","AMMA06",39912.000,"cc",28364.160,6.00,2836.416,1,6,0.100,23571.000,0.200,13097.000,0.300,3091.000,0.500,114.000,1.000,39.000,5.000,0
"07/10/06","21:09:32","AMMA06",40027.000,"cc",28304.959,6.00,2830.496,1,6,0.100,23781.000,0.200,13067.000,0.300,3024.000,0.500,118.000,1.000,37.000,5.000,0
"07/10/06","21:09:38","AMMA06",40090.000,"cc",28221.932,6.00,2822.193,1,6,0.100,23727.000,0.200,13211.000,0.300,2997.000,0.500,120.000,1.000,35.000,5.000,0
"07/10/06","21:09:44","AMMA06",40272.000,"cc",28386.123,6.00,2838.613,1,6,0.100,23840.000,0.200,13308.000,0.300,2986.000,0.500,112.000,1.000,26.000,5.000,0
"07/10/06","21:09:50","AMMA06",39428.000,"cc",28361.732,6.00,2836.173,1,6,0.100,23412.000,0.200,13003.000,0.300,2866.000,0.500,101.000,1.000,46.000,5.000,0
"07/10/06","21:09:56","AMMA06",39539.000,"cc",28307.715,6.00,2830.772,1,6,0.100,23345.000,0.200,13047.000,0.300,2992.000,0.500,116.000,1.000,39.000,5.000,0
"07/10/06","21:10:02","AMMA06",39870.000,"cc",28308.574,6.00,2830.858,1,6,0.100,23341.000,0.200,13311.000,0.300,3057.000,0.500,121.000,1.000,40.000,5.000,0
"07/10/06","21:10:08","AMMA06",39650.000,"cc",28328.291,6.00,2832.829,1,6,0.100,23540.000,0.200,13093.000,0.300,2866.000,0.500,120.000,1.000,31.000,5.000,0
"07/10/06","21:10:14","AMMA06",40193.000,"cc",28301.182,6.00,2830.118,1,6,0.100,23943.000,0.200,13174.000,0.300,2926.000,0.500,108.000,1.000,42.000,5.000,0
"07/10/06","21:10:20","AMMA06",40376.000,"cc",28328.549,6.00,2832.855,1,6,0.100,24120.000,0.200,13133.000,0.300,2956.000,0.500,128.000,1.000,39.000,5.000,0
"07/10/06","21:10:26","AMMA06",39916.000,"cc",28259.234,6.00,2825.924,1,6,0.100,23857.000,0.200,13057.000,0.300,2874.000,0.500,97.000,1.000,31.000,5.000,0
"07/10/06","21:10:32","AMMA06",40444.000,"cc",28309.129,6.00,2830.913,1,6,0.100,24225.000,0.200,13099.000,0.300,2966.000,0.500,130.000,1.000,24.000,5.000,0
"07/10/06","21:10:38","AMMA06",40258.000,"cc",28310.162,6.00,2831.016,1,6,0.100,24121.000,0.200,13184.000,0.300,2798.000,0.500,119.000,1.000,36.000,5.000,0
"07/10/06","21:10:44","AMMA06",40392.000,"cc",28320.775,6.00,2832.078,1,6,0.100,24233.000,0.200,13142.000,0.300,2856.000,0.500,117.000,1.000,44.000,5.000,0
"07/10/06","21:10:50","AMMA06",40445.000,"cc",28327.861,6.00,2832.786,1,6,0.100,24148.000,0.200,13268.000,0.300,2900.000,0.500,93.000,1.000,36.000,5.000,0
"07/10/06","21:10:56","AMMA06",40198.000,"cc",28226.592,6.00,2822.659,1,6,0.100,24046.000,0.200,13102.000,0.300,2918.000,0.500,101.000,1.000,31.000,5.000,0
"07/10/06","21:11:02","AMMA06",40328.000,"cc",28407.533,6.00,2840.753,1,6,0.100,24089.000,0.200,13319.000,0.300,2773.000,0.500,112.000,1.000,35.000,5.000,0
"07/10/06","21:11:08","AMMA06",39731.000,"cc",28346.631,6.00,2834.663,1,6,0.100,23644.000,0.200,13179.000,0.300,2773.000,0.500,97.000,1.000,38.000,5.000,0
"07/10/06","21:11:14","AMMA06",40203.000,"cc",28313.842,6.00,2831.384,1,6,0.100,24203.000,0.200,13084.000,0.300,2769.000,0.500,109.000,1.000,38.000,5.000,0
"07/10/06","21:11:20","AMMA06",39816.000,"cc",28331.510,6.00,2833.151,1,6,0.100,23747.000,0.200,13164.000,0.300,2759.000,0.500,108.000,1.000,38.000,5.000,0
"07/10/06","21:11:26","AMMA06",40070.000,"cc",28294.500,6.00,2829.450,1,6,0.100,24171.000,0.200,12904.000,0.300,2837.000,0.500,117.000,1.000,41.000,5.000,0
"07/10/06","21:11:32","AMMA06",39736.000,"cc",28310.027,6.00,2831.003,1,6,0.100,23799.000,0.200,13046.000,0.300,2737.000,0.500,121.000,1.000,33.000,5.000,0
"07/10/06","21:11:38","AMMA06",40010.000,"cc",28376.393,6.00,2837.639,1,6,0.100,23929.000,0.200,13138.000,0.300,2803.000,0.500,108.000,1.000,32.000,5.000,0
"07/10/06","21:11:44","AMMA06",40299.000,"cc",28274.606,6.00,2827.461,1,6,0.100,24265.000,0.200,13116.000,0.300,2771.000,0.500,113.000,1.000,34.000,5.000,0
"07/10/06","21:11:50","AMMA06",39591.000,"cc",28325.277,6.00,2832.528,1,6,0.100,23659.000,0.200,13038.000,0.300,2756.000,0.500,107.000,1.000,31.000,5.000,0
"07/10/06","21:11:56","AMMA06",39446.000,"cc",28337.508,6.00,2833.751,1,6,0.100,23523.000,0.200,13036.000,0.300,2731.000,0.500,120.000,1.000,36.000,5.000,0
"07/10/06","21:12:02","AMMA06",39594.000,"cc",28269.664,6.00,2826.967,1,6,0.100,23594.000,0.200,13052.000,0.300,2792.000,0.500,118.000,1.000,38.000,5.000,0
"07/10/06","21:12:08","AMMA06",39824.000,"cc",28334.453,6.00,2833.446,1,6,0.100,23846.000,0.200,13076.000,0.300,2737.000,0.500,135.000,1.000,30.000,5.000,0
"07/10/06","21:12:14","AMMA06",39235.000,"cc",28271.953,6.00,2827.196,1,6,0.100,23434.000,0.200,12970.000,0.300,2651.000,0.500,132.000,1.000,48.000,5.000,0
"07/10/06","21:12:20","AMMA06",39576.000,"cc",28315.229,6.00,2831.523,1,6,0.100,23786.000,0.200,12924.000,0.300,2715.000,0.500,109.000,1.000,42.000,5.000,0
"07/10/06","21:12:26","AMMA06",39390.000,"cc",28405.619,6.00,2840.562,1,6,0.100,23608.000,0.200,12938.000,0.300,2701.000,0.500,112.000,1.000,31.000,5.000,0
"07/10/06","21:12:32","AMMA06",39429.000,"cc",28338.133,6.00,2833.814,1,6,0.100,23519.000,0.200,13099.000,0.300,2684.000,0.500,93.000,1.000,34.000,5.000,0
"07/10/06","21:12:38","AMMA06",39331.000,"cc",28242.811,6.00,2824.281,1,6,0.100,23499.000,0.200,12936.000,0.300,2752.000,0.500,110.000,1.000,34.000,5.000,0
"07/10/06","21:12:44","AMMA06",39210.000,"cc",28365.621,6.00,2836.562,1,6,0.100,23287.000,0.200,13012.000,0.300,2730.000,0.500,145.000,1.000,36.000,5.000,0
"07/10/06","21:12:50","AMMA06",39701.000,"cc",28368.561,6.00,2836.856,1,6,0.100,23624.000,0.200,13130.000,0.300,2814.000,0.500,110.000,1.000,23.000,5.000,0
"07/10/06","21:12:56","AMMA06",39029.000,"cc",28254.740,6.00,2825.474,1,6,0.100,23177.000,0.200,12890.000,0.300,2791.000,0.500,132.000,1.000,39.000,5.000,0
"07/10/06","21:13:02","AMMA06",39218.000,"cc",28345.408,6.00,2834.541,1,6,0.100,23012.000,0.200,13240.000,0.300,2818.000,0.500,113.000,1.000,35.000,5.000,0
"07/10/06","21:13:08","AMMA06",39510.000,"cc",28300.066,6.00,2830.007,1,6,0.100,23429.000,0.200,12966.000,0.300,2969.000,0.500,122.000,1.000,24.000,5.000,0
"07/10/06","21:13:14","AMMA06",39422.000,"cc",28326.471,6.00,2832.647,1,6,0.100,23272.000,0.200,13025.000,0.300,2974.000,0.500,117.000,1.000,34.000,5.000,0
"07/10/06","21:13:20","AMMA06",39798.000,"cc",28372.096,6.00,2837.210,1,6,0.100,23311.000,0.200,13375.000,0.300,2957.000,0.500,109.000,1.000,46.000,5.000,0
"07/10/06","21:13:26","AMMA06",39328.000,"cc",28279.897,6.00,2827.990,1,6,0.100,23183.000,0.200,13173.000,0.300,2844.000,0.500,93.000,1.000,35.000,5.000,0
"07/10/06","21:13:32","AMMA06",39804.000,"cc",28344.668,6.00,2834.467,1,6,0.100,23347.000,0.200,13259.000,0.300,3029.000,0.500,133.000,1.000,36.000,5.000,0
"07/10/06","21:13:38","AMMA06",39976.000,"cc",28309.840,6.00,2830.984,1,6,0.100,23556.000,0.200,13320.000,0.300,2947.000,0.500,118.000,1.000,35.000,5.000,0
"07/10/06","21:13:44","AMMA06",40140.000,"cc",28332.715,6.00,2833.272,1,6,0.100,23556.000,0.200,13269.000,0.300,3151.000,0.500,128.000,1.000,36.000,5.000,0
"07/10/06","21:13:50","AMMA06",39264.000,"cc",28283.025,6.00,2828.303,1,6,0.100,22987.000,0.200,13053.000,0.300,3062.000,0.500,119.000,1.000,43.000,5.000,0
"07/10/06","21:13:56","AMMA06",39293.000,"cc",28255.160,6.00,2825.516,1,6,0.100,22687.000,0.200,13320.000,0.300,3135.000,0.500,120.000,1.000,31.000,5.000,0
"07/10/06","21:14:02","AMMA06",39285.000,"cc",28316.254,6.00,2831.626,1,6,0.100,22649.000,0.200,13444.000,0.300,3020.000,0.500,125.000,1.000,47.000,5.000,0
"07/10/06","21:14:08","AMMA06",39467.000,"cc",28330.943,6.00,2833.095,1,6,0.100,22970.000,0.200,13205.000,0.300,3130.000,0.500,121.000,1.000,41.000,5.000,0
"07/10/06","21:14:14","AMMA06",38885.000,"cc",28278.398,6.00,2827.840,1,6,0.100,22282.000,0.200,13284.000,0.300,3158.000,0.500,137.000,1.000,24.000,5.000,0
"07/10/06","21:14:20","AMMA06",38929.000,"cc",28366.852,6.00,2836.685,1,6,0.100,22429.000,0.200,13316.000,0.300,3024.000,0.500,121.000,1.000,39.000,5.000,0